Home > Weather > Maple Ridge > Past weeks

Flag for Canada Past Weather in Maple Ridge, British Columbia, Canada — Yesterday and Last 2 Weeks

Now
63 °F

Mild.


Feels Like: 63 °F
Forecast: 56 / 85 °F
Wind: 1 mph from Northeast

Location: P. Meadows Coastal Station

Current Time: Aug 23, 2016 at 11:59:37 PM

Latest Report: Aug 23, 2016 at 11:00 PM


Visibility: N/A

Pressure: 30.19 "Hg

Humidity: 77%

Dew Point: 56 °F

Location of Maple RidgeLocation

Past Weather in Maple Ridge — Graph

°F

Maple Ridge Temperature Yesterday

Maximum temperature yesterday: 70 °F (at 6:00 PM)
Minimum temperature yesterday: 55 °F (at 3:00 AM)
Average temperature yesterday: 62 °F

High & Low Weather Summary for the Past Weeks

 TemperatureHumidityPressure
High93 °F (Aug 19, 4:00 PM)96% (Aug 10, 1:00 AM)30.22 "Hg (Aug 10, 1:00 AM)
Low51 °F (Aug 23, 3:00 AM)21% (Aug 19, 5:00 PM)29.77 "Hg (Aug 21, 3:00 AM)
Average69 °F68%30.02 "Hg
* Reported Aug 8 10:00 PM — Aug 23 10:00 PM, Maple Ridge, Weather by CustomWeather, © 2016

Note: Actual official high and low records may vary slightly from our data, if they occured in-between our weather recording intervals... More about our weather records

Advertising

Maple Ridge Weather History for the Previous 24 Hours

Scroll right to see more
 ConditionsComfort  
Time TempWeatherWind HumidityBarometerVisibility
10:00 PM
Tue, Aug 23
64 °FMild.2 mph71%30.18 "HgN/A
9:00 PM68 °FMild.2 mph64%30.17 "HgN/A
8:00 PM72 °FMild.1 mph56%30.15 "HgN/A
7:00 PM74 °FMild.6 mph49%30.14 "HgN/A
6:00 PM78 °FWarm.8 mph43%30.15 "HgN/A
5:00 PM80 °FPleasantly warm.8 mph37%30.15 "HgN/A
4:00 PM79 °FPleasantly warm.7 mph39%30.16 "HgN/A
3:00 PM79 °FWarm.7 mph46%30.17 "HgN/A
2:00 PM77 °FMild.5 mph49%30.18 "HgN/A
1:00 PM73 °FMild.3 mph51%30.19 "HgN/A
12:00 PM71 °FMild.2 mph53%30.21 "HgN/A
11:00 AM69 °FMild.2 mph58%30.22 "HgN/A
10:00 AM67 °FMild.1 mph64%30.22 "HgN/A
9:00 AM62 °FCool.1 mph75%30.21 "HgN/A
8:00 AM59 °FCool.1 mph84%30.20 "HgN/A
7:00 AM53 °FCool.2 mph86%30.19 "HgN/A
6:00 AM52 °FCool.No wind92%30.18 "HgN/A
5:00 AM52 °FCool.No wind92%30.16 "HgN/A
4:00 AM52 °FCool.No wind91%30.15 "HgN/A
3:00 AM51 °FCool.No wind95%30.15 "HgN/A
2:00 AM55 °FCool.No wind88%30.15 "HgN/A
1:00 AM55 °FCool.1 mph88%30.14 "HgN/A
12:00 AM58 °FCool.1 mph82%30.14 "HgN/A
11:00 PM
Mon, Aug 22
56 °FCool.1 mph87%30.14 "HgN/A
Weather by CustomWeather, © 2016

See weather overviewHow to use our weather pages